OPS 4682 DEB, 38443

Orbit data source: Space-Track

OPS 4682 DEB, 38443 is space debris in LEO originally from a launch on Sat, 03 Apr 1965 UTC launched from the Air Force Western Test Range (AFWTR). Debris objects in space refer to the collection of defunct objects orbiting the Earth. Examples of debris include non-operational satellites, rocket bodies, and fragments generated from explosions, collisions, or faulty payload assembly.

Loading next visibility...
Identifier
38443, 1965-027EY
Orbit
LEO
Country
Flag of USUS
Related business
Manufacturer
Unknown
Mission
Spacecraft
Bus & Motor
Unknown
Mass
Unknown
Launch date (UTC)
1965-04-03 (61 years ago)
Launch vehicle
Unknown
Launch site
Air Force Western Test Range (AFWTR)
Object type
Payload
Rocket body
Debris
Shape & HBR
Unknown shape, 0.1 m
Radar Cross Section
Small (<0.1 m²)

Expand to show TLE details & history
Last TLE update: 2 days ago

TLE from 2 days ago
0 OPS 4682 DEB
1 38443U 65027EY  25347.99659172 -.00000253  00000-0 -85538-3 0  9995
2 38443  90.2321 359.0674 0029503  15.6053 344.5972 13.00792379527744
Epoch: 2025-12-13T23:55Z
TLE epoch observation values (Epoch: 2025-12-13T23:55:05.524Z)
Latitude
-0.00006°
Longitude
-82.62146°
Altitude
1,240.147 km
Speed
7.245 km/s
True Right ascension
23h 56m 16s
True Declination
0° 00' 00"
Sunlit
Object was in daylight at epoch
Visualization orbit readout
Latitude
Unknown
Longitude
Unknown
Altitude
Unknown
Speed
Unknown
Apparent Right ascension
Unknown
Apparent Declination
Unknown
Sunlit
N/A
Visualization observer readout
Local Sidereal Time
13:22:51
Azimuth
Unknown
Elevation
Unknown
Doppler factor
Unknown
Orbital elements
Apogee altitude
1,278.633 km
Perigee altitude
1,233.586 km
Semi-major axis
7,634.246 km
Eccentricity
0.00295
Inclination
90.2321°
RAAN
359.0674°
Arg. of periapsis
15.6053°
True anomaly
344.50708°
Mean anomaly
344.5972°
Eccentric anomaly
344.55217°
Mean motion
3.25382 °/min
Orbital period
110.64 mins
BSTAR
-0.00085538
Loading maneuver chart data...
Computing Atmospheric mass density...
Loading historical data...
Loading historical data...
Loading historical data...
Loading historical data...
Loading historical data...
Loading historical data...
Loading historical data...

Documentation

Showing up to 5 results
|